Showing default

COSMOS 2443 (GLONASS), 33379

Orbit data source: Space-Track

COSMOS 2443 (GLONASS), 33379 is a Commonwealth of Independent States-origin payload satellite in MEO that was launched on Thu, 25 Sep 2008 UTC via a PROTON-M/DM-2 launch vehicle from the Tyuratam Missile And Space Complex (TTMTR). Payload-class satellites include a variety of spacecraft equipped with specific instruments for various scientific and technological missions. These include communications satellites like Starlink; space stations such as the ISS; scientific satellites like the Hubble; Earth observation satellites from companies like Planet Labs, Umbra, and HawkEye 360; GPS; miniature CubeSats for education and research; and military/defense satellites.

Loading next visibility...
Identifier
33379, 2008-046B
Orbit
MEO
Country
Flag of CISCIS
Related business
Manufacturer
Resehetnev ISS
Mission
Non-operational Defense Navigation
Bus & Motor
URAGAN, Unknown motor
Mass
1,450 kg wet, ~1,200 kg dry
Launch date (UTC)
2008-09-25 (17 years ago)
Launch vehicle
PROTON-M/DM-2
Launch site
Tyuratam Missile And Space Complex (TTMTR)
Object type
Payload
Rocket body
Debris
Shape & HBR
Cyl + 1 Ant + 2 Pan, 3.9 m
Radar Cross Section
8.467 m², Large (>1 m²)

Expand to show TLE details & history
Last TLE update: 1 day ago

TLE from 1 day ago
0 COSMOS 2443 (GLONASS)
1 33379U 08046B   26061.36694855 -.00000048  00000-0  00000-0 0  9997
2 33379  65.5356 318.5897 0014961 181.7677   0.5701  2.13098980135671
Epoch: 2026-03-02T08:48Z
TLE epoch observation values (Epoch: 2026-03-02T08:48:24.354Z)
Latitude
-2.13721°
Longitude
-152.69258°
Altitude
19,092.777 km
Speed
3.959 km/s
True Right ascension
09h 18m 16s
True Declination
-2° 08' 01"
Sunlit
Object was in daylight at epoch
Visualization orbit readout
Latitude
Unknown
Longitude
Unknown
Altitude
Unknown
Speed
Unknown
Apparent Right ascension
Unknown
Apparent Declination
Unknown
Sunlit
N/A
Visualization observer readout
Local Sidereal Time
20:46:01
Azimuth
Unknown
Elevation
Unknown
Doppler factor
Unknown
Orbital elements
Apogee altitude
19,167.887 km
Perigee altitude
19,091.563 km
Semi-major axis
25,507.862 km
Eccentricity
0.0015
Inclination
65.5356°
RAAN
318.5897°
Arg. of periapsis
181.7677°
True anomaly
0.57181°
Mean anomaly
0.5701°
Eccentric anomaly
0.57095°
Mean motion
0.53276 °/min
Orbital period
675.73 mins
BSTAR
0
Loading maneuver chart data...
Computing Atmospheric mass density...
Loading historical data...
Loading historical data...
Loading historical data...
Loading historical data...
Loading historical data...
Loading historical data...
Loading historical data...

Documentation

Showing up to 5 results
|